EXPRESS 80

Last updated on Sat Apr 11 2026 00:02:55 GMT+0000 (Coordinated Universal Time)

1 45986U 20053B 26100.22683020 -.00000141 00000+0 00000+0 0 9999 2 45986 0.0269 236.9720 0003070 272.7844 210.2587 1.00304276 20958
UTC large
Height (km)
Speed (km/s)
/
Latitude / Longitude
Inclination (degrees)
Orbital Period (minutes)
Azimuth
Elevation
Range (km)
Doppler Factor

Next 0 passes for location: London (51.5072 / 0.1276)

Sorry there are no passes over London.
EXPRESS 80